Location: Unspecified
(0.0000°N, 0.0000°E)
Time: 21:55:19
(UTC+00:00)

Courier 1B Rocket - All Passes

Search period start: 30 September 2014 00:00
Search period end: 10 October 2014 00:00
Orbit: 921 x 1202 km, 28.2° (Epoch: 29 September)

Date Brightness Start Highest point End Pass type
(mag) Time Alt. Az. Time Alt. Az. Time Alt. Az.
30 Sep - 05:11:08 10° S 05:12:48 11° SSE 05:14:27 10° SSE visible
30 Sep - 07:01:16 10° SW 07:07:24 33° SSE 07:13:10 10° E daylight
30 Sep - 08:54:23 10° WSW 09:01:01 70° NNW 09:07:17 10° NE daylight
30 Sep - 10:50:23 10° WNW 10:54:37 18° NNW 10:58:48 10° NNE daylight
30 Sep - 18:29:48 10° NNW 18:35:38 28° NNE 18:41:47 10° E visible
30 Sep - 20:22:08 10° WNW 20:29:25 88° SSW 20:37:10 10° ESE visible
30 Sep - 22:17:08 10° W 22:23:29 29° SSW 22:30:02 10° SSE night (unlit)
01 Oct - 00:17:49 10° SSW 00:18:32 10° SSW 00:19:15 10° SSW night (unlit)
01 Oct - 06:00:42 10° SSW 06:06:10 23° SSE 06:11:20 10° ESE daylight
01 Oct - 07:53:10 10° SW 08:00:03 77° SSE 08:06:28 10° ENE daylight
01 Oct - 09:48:03 10° W 09:53:32 28° NNW 09:58:50 10° NNE daylight
01 Oct - 17:29:50 10° NNW 17:34:23 19° NNE 17:39:08 10° ENE daylight
01 Oct - 19:21:18 10° NW 19:28:15 64° NNE 19:35:43 10° ESE visible
01 Oct - 21:15:16 10° W 21:22:07 41° SSW 21:29:18 10° SE visible
01 Oct - 23:12:57 10° SW 23:16:47 14° SSW 23:20:38 10° S night (unlit)
02 Oct - 05:00:21 10° SSW 05:04:45 17° SSE 05:08:59 10° ESE visible
02 Oct - 06:52:08 10° SW 06:59:00 51° SSE 07:05:23 10° ENE daylight
02 Oct - 08:46:10 10° W 08:52:32 44° NNW 08:58:33 10° NE daylight
02 Oct - 10:44:11 10° NW 10:46:25 12° NNW 10:48:38 10° N daylight
02 Oct - 16:30:40 10° N 16:33:03 12° NNE 16:35:30 10° NE daylight
02 Oct - 18:20:44 10° NW 18:27:08 42° NNE 18:33:59 10° E visible
02 Oct - 20:13:49 10° WNW 20:20:50 59° SSW 20:28:21 10° SE visible
02 Oct - 22:09:58 10° WSW 22:15:10 20° SSW 22:20:30 10° SSE night (unlit)
03 Oct - 04:00:27 10° S 04:03:10 12° SSE 04:05:49 10° SE visible
03 Oct - 05:51:17 10° SW 05:57:50 35° SSE 06:03:58 10° E daylight
03 Oct - 07:44:35 10° WSW 07:51:33 69° NNW 07:58:00 10° NE daylight
03 Oct - 09:40:48 10° WNW 09:45:12 19° NNW 09:49:27 10° NNE daylight
03 Oct - 17:20:28 10° NNW 17:26:00 28° NNE 17:31:52 10° E daylight
03 Oct - 19:12:44 10° WNW 19:19:40 86° SSW 19:27:10 10° ESE visible
03 Oct - 21:07:40 10° W 21:13:41 27° SSW 21:19:59 10° SSE visible
04 Oct - 04:50:36 10° SSW 04:56:32 25° SSE 05:02:08 10° ESE visible
04 Oct - 06:43:16 10° WSW 06:50:31 80° SSE 06:57:12 10° ENE daylight
04 Oct - 08:38:20 10° W 08:44:05 29° NNW 08:49:32 10° NNE daylight
04 Oct - 16:20:35 10° NNW 16:24:50 18° NNE 16:29:15 10° ENE daylight
04 Oct - 18:11:56 10° NW 18:18:35 65° NNE 18:25:45 10° ESE visible
04 Oct - 20:05:52 10° W 20:12:21 38° SSW 20:19:15 10° SE visible
04 Oct - 22:03:36 10° SW 22:07:00 13° SSW 22:10:29 10° S visible
05 Oct - 03:50:09 10° SSW 03:55:04 18° SSE 03:59:48 10° ESE visible
05 Oct - 05:42:09 10° SW 05:49:23 54° SSE 05:56:06 10° ENE daylight
05 Oct - 07:36:20 10° W 07:43:01 44° NNW 07:49:15 10° NE daylight
05 Oct - 09:34:30 10° NW 09:36:58 12° NNW 09:39:24 10° N daylight
05 Oct - 15:21:34 10° N 15:23:34 11° NNE 15:25:35 10° NE daylight
05 Oct - 17:11:25 10° NW 17:17:32 42° NNE 17:24:04 10° E daylight
05 Oct - 19:04:28 10° WNW 19:11:08 56° SSW 19:18:20 10° SE visible
05 Oct - 21:00:38 10° WSW 21:05:24 18° SSW 21:10:22 10° SSE visible
06 Oct - 02:50:06 10° S 02:53:26 13° SSE 02:56:44 10° SE visible
06 Oct - 04:41:14 10° SW 04:48:09 37° SSE 04:54:40 10° E visible
06 Oct - 06:34:40 10° WSW 06:41:58 68° NNW 06:48:42 10° NE daylight
06 Oct - 08:31:02 10° WNW 08:35:42 19° NNW 08:40:11 10° NNE daylight
06 Oct - 16:11:11 10° NNW 16:16:29 27° NNE 16:22:02 10° E daylight
06 Oct - 18:03:25 10° WNW 18:10:02 83° SSW 18:17:12 10° ESE visible
06 Oct - 19:58:22 10° W 20:03:58 25° SSW 20:09:54 10° SSE visible
07 Oct - 03:40:31 10° SSW 03:46:47 27° SSE 03:52:48 10° E visible
07 Oct - 05:33:17 10° WSW 05:40:51 83° SSE 05:47:52 10° ENE daylight
07 Oct - 07:28:29 10° W 07:34:32 29° NNW 07:40:14 10° NNE daylight
07 Oct - 15:11:18 10° NNW 15:15:22 18° NNE 15:19:32 10° ENE daylight
07 Oct - 17:02:39 10° NW 17:09:01 65° NNE 17:15:52 10° ESE daylight
07 Oct - 18:56:35 10° W 19:02:41 36° SSW 19:09:13 10° SE visible
07 Oct - 20:54:32 10° SW 20:57:18 12° SSW 21:00:07 10° S visible
08 Oct - 02:40:03 10° SSW 02:45:18 19° SSE 02:50:25 10° ESE visible
08 Oct - 04:32:07 10° SW 04:39:39 57° SSE 04:46:44 10° ENE visible
08 Oct - 06:26:24 10° W 06:33:24 44° NNW 06:39:55 10° NE daylight
08 Oct - 08:24:35 10° NW 08:27:28 13° NNW 08:30:16 10° N daylight
08 Oct - 14:12:18 10° N 14:14:07 11° NNE 14:15:57 10° NE daylight
08 Oct - 16:02:08 10° NW 16:08:03 42° NNE 16:14:17 10° E daylight
08 Oct - 17:55:13 10° WNW 18:01:33 53° SSW 18:08:22 10° SE daylight
08 Oct - 19:51:28 10° WSW 19:55:44 17° SSW 20:00:11 10° SSE visible
09 Oct - 01:39:58 10° S 01:43:39 14° SSE 01:47:19 10° SE visible
09 Oct - 03:31:11 10° SW 03:38:22 39° SSE 03:45:13 10° E visible
09 Oct - 05:24:41 10° WSW 05:32:15 67° NNW 05:39:19 10° NE visible
09 Oct - 07:21:08 10° WNW 07:26:08 20° NNW 07:30:55 10° NNE daylight
09 Oct - 15:01:52 10° NNW 15:07:03 27° NNE 15:12:22 10° E daylight
09 Oct - 16:54:09 10° WNW 17:00:31 80° SSW 17:07:20 10° ESE daylight
09 Oct - 18:49:11 10° WSW 18:54:21 24° SSW 18:59:50 10° SSE visible
